Stations météo

réclame
Mon MeteoGroup
Topcliffe, Grande-Bretagne (3265): Température de l'air & dewpoint: 08.08.2018 16:00:00 - 14.08.2018 16:00:00 (BST)Topcliffe, Grande-Bretagne (3265): Vitesse du vent: 08.08.2018 16:00:00 - 14.08.2018 16:00:00 (BST)Topcliffe, Grande-Bretagne (3265): Direction du vent: 08.08.2018 16:00:00 - 14.08.2018 16:00:00 (BST)Topcliffe, Grande-Bretagne (3265): reduced air pressure: 08.08.2018 16:00:00 - 14.08.2018 16:00:00 (BST)Topcliffe, Grande-Bretagne (3265): visibility: 08.08.2018 16:00:00 - 14.08.2018 16:00:00 (BST)Topcliffe, Grande-Bretagne (3265): Quantités de précipitations: 08.08.2018 16:00:00 - 14.08.2018 16:00:00 (BST)
Date & Time tt [°C] td [°C] ff [km/h] ff [knt] dd ppp [hPa] vv [km] rr [mm]
14.08.2018 16:00:00 20,0 15,0 24 13 WSW - 10 0,0
14.08.2018 15:00:00 19,4 14,8 22 12 WSW 1013,8 10 0,0
14.08.2018 14:00:00 19,2 14,7 21 11 SW 1013,7 10 0,0
14.08.2018 13:00:00 19,3 14,4 22 12 WSW 1013,6 10 0,0
14.08.2018 12:00:00 19,3 14,2 26 14 WSW 1013,7 10 0,0
14.08.2018 11:00:00 18,7 14,3 15 8 WSW 1013,3 10 0,0
14.08.2018 10:00:00 18,7 14,3 15 8 SW 1013,2 10 0,0
14.08.2018 09:00:00 17,6 13,4 9 5 WSW 1013,2 10 0,0
14.08.2018 08:00:00 17,1 13,0 11 6 W 1013,0 10 0,0
14.08.2018 07:00:00 13,9 12,5 2 1 SSE 1012,8 45 0,0
14.08.2018 06:00:00 14,9 12,3 9 5 WNW 1012,4 45 0,0
14.08.2018 05:00:00 14,8 12,7 8 4 W 1012,1 50 0,0
14.08.2018 04:00:00 14,7 12,5 9 5 W 1012,0 50 0,0
14.08.2018 03:00:00 15,6 13,5 15 8 W 1011,7 50 0,0
14.08.2018 02:00:00 16,7 14,4 11 6 WNW 1011,5 50 0,0
14.08.2018 01:00:00 16,8 16,0 9 5 W 1011,2 17 0,0
14.08.2018 00:00:00 16,6 15,7 5 3 N 1010,7 18 0,0
13.08.2018 23:00:00 17,4 16,0 8 4 NW 1010,2 45 0,0
13.08.2018 22:00:00 17,6 16,2 5 3 NW 1009,8 40 0,0
13.08.2018 21:00:00 17,8 15,8 8 4 NNW 1009,3 50 0,0
13.08.2018 20:00:00 18,2 16,0 13 7 N 1008,8 50 0,0
13.08.2018 19:00:00 18,6 16,6 9 5 N 1008,0 50 0,0
13.08.2018 18:00:00 19,0 17,3 13 7 N 1007,4 26 0,6
13.08.2018 17:00:00 18,3 17,2 16 9 NNW 1007,2 7 6,6
13.08.2018 16:00:00 21,8 15,9 15 8 NNW 1006,4 50 0,0
13.08.2018 15:00:00 22,6 16,3 15 8 N 1006,0 35 0,0
13.08.2018 14:00:00 21,4 18,5 16 9 N 1005,9 10 0,2
13.08.2018 13:00:00 19,1 16,6 18 10 N 1005,8 9 0,6
13.08.2018 12:00:00 21,0 15,9 21 11 NNW 1005,7 30 0,0
13.08.2018 11:00:00 20,8 16,1 13 7 N 1005,6 10 0,0
13.08.2018 10:00:00 19,0 16,9 11 6 N 1005,5 7 0,0
13.08.2018 09:00:00 18,2 17,1 11 6 NW 1005,5 4,0 0,0
13.08.2018 08:00:00 16,7 16,6 5 3 NNW 1005,3 2,0 0,0
13.08.2018 07:00:00 16,6 16,5 4 2 N 1005,0 3,6 0,0
13.08.2018 06:00:00 16,4 16,2 4 2 SW 1004,6 4,2 0,0
13.08.2018 05:00:00 16,1 16,0 4 2 SSW 1004,7 5 0,0
13.08.2018 04:00:00 15,6 15,5 4 2 SE 1004,7 0,2 0,0
13.08.2018 03:00:00 15,7 15,3 8 4 ESE 1004,9 3,2 0,0
13.08.2018 02:00:00 16,7 16,5 4 2 SE 1005,3 9 0,0
13.08.2018 01:00:00 16,0 15,7 9 5 ESE 1005,5 10 0,0
13.08.2018 00:00:00 16,0 15,3 8 4 ESE 1005,6 17 0,0
12.08.2018 23:00:00 17,6 16,4 11 6 SE 1005,8 35 0,0
12.08.2018 22:00:00 18,1 16,4 9 5 ESE 1006,1 19 0,0
12.08.2018 21:00:00 18,2 16,8 11 6 ESE 1005,9 27 0,0
12.08.2018 20:00:00 19,3 17,2 13 7 ESE 1005,8 45 0,0
12.08.2018 19:00:00 19,4 17,2 13 7 ESE 1005,8 40 0,0
12.08.2018 18:00:00 19,7 16,7 16 9 SSE 1006,2 45 0,0
12.08.2018 17:00:00 20,0 16,6 21 11 S 1006,4 40 0,0
12.08.2018 16:00:00 20,3 16,8 18 10 S 1006,8 50 0,0
12.08.2018 15:00:00 21,2 16,6 16 9 S 1007,0 50 0,0
12.08.2018 14:00:00 21,9 17,3 16 9 S 1007,2 35 0,0
12.08.2018 13:00:00 20,9 17,2 15 8 S 1007,3 50 0,0
12.08.2018 12:00:00 20,1 17,9 13 7 S 1007,5 45 0,0
12.08.2018 11:00:00 19,2 18,0 15 8 S 1007,6 35 0,0
12.08.2018 10:00:00 17,5 17,1 15 8 SE 1007,8 17 0,0
12.08.2018 09:00:00 16,7 16,5 13 7 SE 1008,0 12 0,4
12.08.2018 08:00:00 16,0 15,9 11 6 SSE 1008,3 7 0,2
12.08.2018 07:00:00 15,8 15,6 13 7 SE 1008,4 7 0,2
12.08.2018 06:00:00 15,7 15,5 15 8 SSE 1008,6 7 0,0
12.08.2018 05:00:00 15,7 15,5 15 8 SSE 1009,0 4,6 0,0
12.08.2018 04:00:00 15,8 15,6 15 8 SSE 1009,8 8 0,4
12.08.2018 03:00:00 15,8 15,6 16 9 SE 1010,5 3,6 0,2
12.08.2018 02:00:00 15,7 15,5 16 9 SE 1011,4 5 0,0
12.08.2018 01:00:00 15,4 15,2 18 10 SE 1012,2 8 0,6
12.08.2018 00:00:00 15,1 14,7 21 11 SE 1013,2 4,8 1,2
11.08.2018 23:00:00 15,2 14,4 21 11 SSE 1014,0 11 0,4
11.08.2018 22:00:00 17,0 12,8 24 13 S 1014,7 35 0,0
11.08.2018 21:00:00 18,9 10,6 18 10 S 1015,0 45 0,0
11.08.2018 20:00:00 20,1 9,3 16 9 S 1015,1 40 0,0
11.08.2018 19:00:00 20,6 8,5 18 10 S 1015,7 45 0,0
11.08.2018 18:00:00 20,9 7,1 11 6 SSW 1016,4 50 0,0
11.08.2018 17:00:00 21,4 7,5 9 5 SSW 1016,9 35 0,0
11.08.2018 16:00:00 20,8 10,1 15 8 SSE 1017,8 30 0,0
11.08.2018 15:00:00 19,5 7,9 16 9 S 1018,8 50 0,0
11.08.2018 14:00:00 19,1 8,4 11 6 WSW 1019,4 35 0,0
11.08.2018 13:00:00 18,4 7,9 11 6 WSW 1019,6 45 0,0
11.08.2018 12:00:00 17,3 8,3 9 5 W 1020,2 50 0,0
11.08.2018 11:00:00 17,5 7,9 8 4 W 1020,4 45 0,0
11.08.2018 10:00:00 16,6 9,0 5 3 SW 1020,7 35 0,0
11.08.2018 09:00:00 14,0 9,2 5 3 NW 1021,2 40 0,0
11.08.2018 08:00:00 10,8 10,0 4 2 S 1021,2 45 0,0
11.08.2018 07:00:00 6,7 6,7 4 2 E 1021,0 22 0,0
11.08.2018 06:00:00 4,9 4,7 5 3 SSE 1020,8 11 0,0
11.08.2018 05:00:00 6,9 6,9 0 0 N 1020,5 40 0,0
11.08.2018 04:00:00 5,4 4,9 4 2 SSE 1020,1 4,5 0,0
11.08.2018 03:00:00 7,1 6,8 5 3 SE 1019,8 20 0,0
11.08.2018 02:00:00 7,3 6,6 5 3 ESE 1019,8 14 0,0
11.08.2018 01:00:00 8,1 7,3 5 3 E 1019,3 50 0,0
11.08.2018 00:00:00 11,4 8,2 5 3 W 1018,9 50 0,0
10.08.2018 23:00:00 12,1 8,1 11 6 W 1018,5 50 0,0
10.08.2018 22:00:00 13,0 7,8 9 5 W 1018,0 50 0,0
10.08.2018 21:00:00 14,5 7,5 15 8 W 1017,3 50 0,0
10.08.2018 20:00:00 14,6 9,4 2 1 W 1016,7 40 0,0
10.08.2018 19:00:00 14,8 9,3 11 6 NNE 1016,2 50 0,0
10.08.2018 18:00:00 17,8 7,3 26 14 WNW 1015,3 30 0,0
10.08.2018 17:00:00 17,4 7,5 21 11 W 1014,9 50 0,0
10.08.2018 16:00:00 16,3 8,8 15 8 WSW 1014,8 30 0,0
10.08.2018 15:00:00 14,8 10,8 8 4 SW 1015,0 45 0,2
10.08.2018 14:00:00 14,2 9,8 8 4 SW 1015,0 35 4,4
10.08.2018 13:00:00 16,3 9,2 11 6 SW 1014,4 30 0,0
10.08.2018 12:00:00 14,6 10,8 18 10 SW 1014,4 45 0,4
10.08.2018 11:00:00 14,6 11,5 21 11 SW 1014,3 30 0,0
10.08.2018 10:00:00 12,8 11,0 11 6 S 1014,4 10 0,0
10.08.2018 09:00:00 11,8 10,1 4 2 SW 1014,4 10 0,4
10.08.2018 08:00:00 11,4 10,0 13 7 SSW 1014,5 40 0,8
10.08.2018 07:00:00 11,3 10,3 8 4 SE 1013,8 30 0,2
10.08.2018 06:00:00 11,5 9,5 9 5 WSW 1014,2 12 0,2
10.08.2018 05:00:00 9,3 8,1 8 4 SSE 1013,6 45 0,0
10.08.2018 04:00:00 8,8 8,0 11 6 S 1013,8 35 0,0
10.08.2018 03:00:00 7,0 6,3 9 5 ESE 1014,2 50 0,0
10.08.2018 02:00:00 6,4 5,3 8 4 ESE 1014,3 50 0,0
10.08.2018 01:00:00 7,7 4,8 4 2 WNW 1014,3 45 0,0
10.08.2018 00:00:00 9,0 4,8 2 1 WNW 1014,1 40 0,0
09.08.2018 23:00:00 12,3 6,4 5 3 W 1013,9 45 0,0
09.08.2018 22:00:00 14,0 6,4 15 8 W 1013,3 50 0,0
09.08.2018 21:00:00 15,7 5,6 9 5 WSW 1013,2 50 0,0
09.08.2018 20:00:00 17,4 6,0 13 7 WNW 1013,0 40 0,0
09.08.2018 19:00:00 17,8 4,9 13 7 WNW 1012,7 45 0,0
09.08.2018 18:00:00 18,2 4,1 21 11 W 1012,6 50 0,0
09.08.2018 17:00:00 19,2 4,3 18 10 W 1012,4 10 0,0
09.08.2018 16:00:00 18,5 9,5 5 3 S 1012,8 10 0,0
09.08.2018 15:00:00 17,2 11,0 9 5 ENE 1013,2 35 0,0
09.08.2018 14:00:00 14,9 12,0 9 5 NNE 1013,4 45 0,6
09.08.2018 13:00:00 18,0 8,0 9 5 WNW 1013,1 10 0,0
09.08.2018 12:00:00 18,2 8,1 9 5 NW 1012,9 10 0,0
09.08.2018 11:00:00 18,4 9,8 11 6 WSW 1013,3 10 0,0
09.08.2018 10:00:00 16,2 10,2 4 2 WSW 1013,1 10 0,0
09.08.2018 09:00:00 14,3 10,4 4 2 SSE 1013,6 30 0,0
09.08.2018 08:00:00 10,4 9,8 4 2 E 1013,8 22 0,0
09.08.2018 07:00:00 9,9 9,1 2 1 N 1013,8 14 0,0
09.08.2018 06:00:00 9,1 8,5 8 4 SSE 1013,4 30 0,0
09.08.2018 05:00:00 8,1 7,6 5 3 SE 1013,2 16 0,0
09.08.2018 04:00:00 8,2 7,7 8 4 ESE 1013,2 14 0,0
09.08.2018 03:00:00 8,7 8,0 4 2 ESE 1013,3 30 0,0
09.08.2018 02:00:00 9,3 8,2 5 3 SSE 1013,2 45 0,0
09.08.2018 01:00:00 8,7 6,8 5 3 E 1013,1 45 0,0
09.08.2018 00:00:00 10,7 8,0 2 1 E 1012,8 50 0,0
08.08.2018 23:00:00 10,1 7,0 5 3 S 1012,6 45 0,0
08.08.2018 22:00:00 13,8 9,0 9 5 WSW 1012,4 50 0,0
08.08.2018 21:00:00 15,1 8,2 11 6 WSW 1011,6 50 0,0
08.08.2018 20:00:00 16,4 8,1 15 8 WSW 1011,1 45 0,0
08.08.2018 19:00:00 18,0 8,2 22 12 WSW 1010,3 45 0,0
08.08.2018 18:00:00 19,1 9,8 22 12 WSW 1010,0 40 0,0
08.08.2018 17:00:00 17,6 10,3 21 11 SW 1010,0 50 0,0
08.08.2018 16:00:00 18,1 11,0 18 10 SW 1009,5 35 0,0

tt = Température de l'air
td = dewpoint
ff = Vitesse du vent
dd = Direction du vent
ppp = reduced air pressure
vv = visibility
rr = Quantités de précipitations

stations d'obs. à proximité